Time,TemperatureF,DewpointF,PressureIn,WindDirection,WindDirectionDegrees,WindSpeedMPH,WindSpeedGustMPH,Humidity,HourlyPrecipIn,Conditions,Clouds,dailyrainin,SoftwareType,DateUTC
2013-08-19 00:12:00,60.6,59.0,30.06,West,266,0.0,0.0,94,0.00,,,0.00,weatherlink.com 1.10,2013-08-19 04:12:00,
2013-08-19 00:27:00,60.4,59.0,30.06,WSW,248,0.0,0.0,95,0.00,,,0.00,weatherlink.com 1.10,2013-08-19 04:27:00,
2013-08-19 00:42:00,58.9,57.0,30.06,WSW,248,0.0,0.0,94,0.00,,,0.00,weatherlink.com 1.10,2013-08-19 04:42:00,
2013-08-19 00:57:00,58.0,57.0,30.05,WSW,248,0.0,0.0,95,0.00,,,0.00,weatherlink.com 1.10,2013-08-19 04:57:00,
2013-08-19 01:12:00,58.1,57.0,30.05,WSW,248,0.0,0.0,97,0.00,,,0.00,weatherlink.com 1.10,2013-08-19 05:12:00,
2013-08-19 01:27:00,58.4,58.0,30.04,West,262,1.0,3.0,97,0.00,,,0.00,weatherlink.com 1.10,2013-08-19 05:27:00,
2013-08-19 01:42:00,58.5,58.0,30.04,WNW,297,0.0,2.0,97,0.00,,,0.00,weatherlink.com 1.10,2013-08-19 05:42:00,
2013-08-19 01:57:00,59.9,59.0,30.04,WSW,246,0.0,4.0,97,0.00,,,0.00,weatherlink.com 1.10,2013-08-19 05:57:00,
2013-08-19 02:12:00,60.6,59.0,30.04,WSW,238,0.0,2.0,95,0.00,,,0.00,weatherlink.com 1.10,2013-08-19 06:12:00,
2013-08-19 02:27:00,61.0,59.0,30.04,West,277,0.0,3.0,93,0.00,,,0.00,weatherlink.com 1.10,2013-08-19 06:27:00,
2013-08-19 02:42:00,60.8,59.0,30.03,WNW,290,5.0,5.0,93,0.00,,,0.00,weatherlink.com 1.10,2013-08-19 06:42:00,
2013-08-19 02:57:00,60.6,59.0,30.03,SW,226,1.0,4.0,93,0.00,,,0.00,weatherlink.com 1.10,2013-08-19 06:57:00,
2013-08-19 03:12:00,60.3,58.0,30.03,NW,311,1.0,4.0,93,0.00,,,0.00,weatherlink.com 1.10,2013-08-19 07:12:00,
2013-08-19 03:27:00,60.7,58.0,30.03,WNW,302,2.0,6.0,92,0.00,,,0.00,weatherlink.com 1.10,2013-08-19 07:27:00,
2013-08-19 03:42:00,60.3,58.0,30.03,SW,233,0.0,4.0,92,0.00,,,0.00,weatherlink.com 1.10,2013-08-19 07:42:00,
2013-08-19 03:57:00,59.4,58.0,30.03,West,263,0.0,2.0,94,0.00,,,0.00,weatherlink.com 1.10,2013-08-19 07:57:00,
2013-08-19 04:12:00,59.5,58.0,30.03,West,275,0.0,3.0,93,0.00,,,0.00,weatherlink.com 1.10,2013-08-19 08:12:00,
2013-08-19 04:27:00,59.8,58.0,30.02,West,261,1.0,4.0,92,0.00,,,0.00,weatherlink.com 1.10,2013-08-19 08:27:00,
2013-08-19 04:42:00,59.5,57.0,30.02,West,274,0.0,2.0,92,0.00,,,0.00,weatherlink.com 1.10,2013-08-19 08:42:00,
2013-08-19 04:57:00,58.7,57.0,30.02,WSW,238,0.0,1.0,93,0.00,,,0.00,weatherlink.com 1.10,2013-08-19 08:57:00,
2013-08-19 05:12:00,58.0,57.0,30.03,WNW,287,0.0,1.0,95,0.00,,,0.00,weatherlink.com 1.10,2013-08-19 09:12:00,
2013-08-19 05:27:00,57.9,57.0,30.02,SW,235,0.0,1.0,95,0.00,,,0.00,weatherlink.com 1.10,2013-08-19 09:27:00,
2013-08-19 05:42:00,57.0,56.0,30.02,SW,235,0.0,0.0,95,0.00,,,0.00,weatherlink.com 1.10,2013-08-19 09:42:00,
2013-08-19 05:57:00,56.2,55.0,30.03,SW,235,0.0,0.0,95,0.00,,,0.00,weatherlink.com 1.10,2013-08-19 09:57:00,
2013-08-19 06:12:00,56.4,55.0,30.03,West,267,1.0,2.0,96,0.00,,,0.00,weatherlink.com 1.10,2013-08-19 10:12:00,
2013-08-19 06:27:00,57.1,56.0,30.03,WSW,249,0.0,2.0,96,0.00,,,0.00,weatherlink.com 1.10,2013-08-19 10:27:00,
2013-08-19 06:42:00,58.0,57.0,30.03,WNW,289,1.0,3.0,96,0.00,,,0.00,weatherlink.com 1.10,2013-08-19 10:42:00,
2013-08-19 06:57:00,58.1,57.0,30.03,NNW,342,0.0,2.0,95,0.00,,,0.00,weatherlink.com 1.10,2013-08-19 10:57:00,
2013-08-19 07:12:00,60.5,58.0,30.02,West,280,1.0,3.0,92,0.00,,,0.00,weatherlink.com 1.10,2013-08-19 11:12:00,
2013-08-19 07:27:00,61.9,59.0,30.02,WSW,248,3.0,5.0,91,0.00,,,0.00,weatherlink.com 1.10,2013-08-19 11:27:00,
2013-08-19 07:42:00,63.1,59.0,30.02,WNW,282,0.0,6.0,87,0.00,,,0.00,weatherlink.com 1.10,2013-08-19 11:42:00,
2013-08-19 07:57:00,63.8,60.0,30.01,West,279,1.0,7.0,86,0.00,,,0.00,weatherlink.com 1.10,2013-08-19 11:57:00,
2013-08-19 08:12:00,64.2,60.0,30.02,ESE,105,1.0,5.0,85,0.00,,,0.00,weatherlink.com 1.10,2013-08-19 12:12:00,
2013-08-19 08:27:00,65.4,60.0,30.02,West,259,0.0,4.0,83,0.00,,,0.00,weatherlink.com 1.10,2013-08-19 12:27:00,
2013-08-19 08:43:00,66.6,61.0,30.01,SSW,205,1.0,4.0,82,0.00,,,0.00,weatherlink.com 1.10,2013-08-19 12:43:00,
2013-08-19 08:58:00,67.8,61.0,30.01,West,280,5.0,6.0,78,0.00,,,0.00,weatherlink.com 1.10,2013-08-19 12:58:00,
2013-08-19 09:13:00,68.3,62.0,30.01,West,274,2.0,7.0,79,0.00,,,0.00,weatherlink.com 1.10,2013-08-19 13:13:00,
2013-08-19 09:28:00,69.6,62.0,30.00,NW,320,5.0,6.0,78,0.00,,,0.00,weatherlink.com 1.10,2013-08-19 13:28:00,
2013-08-19 09:43:00,69.9,61.0,30.00,NNE,23,0.0,9.0,74,0.00,,,0.00,weatherlink.com 1.10,2013-08-19 13:43:00,
2013-08-19 09:58:00,71.8,62.0,30.00,West,276,2.0,5.0,72,0.00,,,0.00,weatherlink.com 1.10,2013-08-19 13:58:00,
2013-08-19 10:13:00,72.3,62.0,30.00,WSW,256,1.0,7.0,70,0.00,,,0.00,weatherlink.com 1.10,2013-08-19 14:13:00,
2013-08-19 10:28:00,74.0,61.0,29.99,WSW,257,3.0,6.0,65,0.00,,,0.00,weatherlink.com 1.10,2013-08-19 14:28:00,
2013-08-19 10:43:00,74.2,62.0,29.99,SW,228,2.0,7.0,65,0.00,,,0.00,weatherlink.com 1.10,2013-08-19 14:43:00,
2013-08-19 10:58:00,74.4,62.0,29.99,WNW,287,7.0,8.0,65,0.00,,,0.00,weatherlink.com 1.10,2013-08-19 14:58:00,
2013-08-19 11:13:00,74.7,62.0,29.99,NW,308,2.0,7.0,64,0.00,,,0.00,weatherlink.com 1.10,2013-08-19 15:13:00,
2013-08-19 11:28:00,75.1,62.0,29.98,WNW,302,3.0,11.0,65,0.00,,,0.00,weatherlink.com 1.10,2013-08-19 15:28:00,
2013-08-19 11:43:00,76.2,60.0,29.98,WSW,238,4.0,8.0,58,0.00,,,0.00,weatherlink.com 1.10,2013-08-19 15:43:00,
2013-08-19 11:58:00,77.5,62.0,29.98,NW,309,8.0,8.0,60,0.00,,,0.00,weatherlink.com 1.10,2013-08-19 15:58:00,
2013-08-19 12:13:00,76.6,60.0,29.98,West,270,3.0,9.0,56,0.00,,,0.00,weatherlink.com 1.10,2013-08-19 16:13:00,
2013-08-19 12:28:00,76.2,61.0,29.98,NW,320,2.0,8.0,59,0.00,,,0.00,weatherlink.com 1.10,2013-08-19 16:28:00,
2013-08-19 12:43:00,75.7,62.0,29.98,WNW,291,1.0,9.0,62,0.00,,,0.00,weatherlink.com 1.10,2013-08-19 16:43:00,
2013-08-19 12:58:00,75.3,60.0,29.97,NE,41,1.0,8.0,60,0.00,,,0.00,weatherlink.com 1.10,2013-08-19 16:58:00,
2013-08-19 13:13:00,75.5,59.0,29.97,North,353,2.0,7.0,57,0.00,,,0.00,weatherlink.com 1.10,2013-08-19 17:13:00,
2013-08-19 13:28:00,75.8,58.0,29.97,West,276,1.0,9.0,55,0.00,,,0.00,weatherlink.com 1.10,2013-08-19 17:28:00,
2013-08-19 13:43:00,76.0,60.0,29.97,NW,307,3.0,6.0,57,0.00,,,0.00,weatherlink.com 1.10,2013-08-19 17:43:00,
2013-08-19 13:58:00,76.4,61.0,29.96,North,354,2.0,6.0,59,0.00,,,0.00,weatherlink.com 1.10,2013-08-19 17:58:00,
2013-08-19 14:13:00,76.1,62.0,29.96,West,274,2.0,5.0,62,0.00,,,0.00,weatherlink.com 1.10,2013-08-19 18:13:00,
2013-08-19 14:28:00,75.9,62.0,29.96,WNW,301,3.0,5.0,62,0.00,,,0.00,weatherlink.com 1.10,2013-08-19 18:28:00,
2013-08-19 14:44:00,76.4,61.0,29.96,West,280,3.0,6.0,60,0.00,,,0.00,weatherlink.com 1.10,2013-08-19 18:44:00,
2013-08-19 14:59:00,75.8,62.0,29.95,West,270,1.0,8.0,63,0.00,,,0.00,weatherlink.com 1.10,2013-08-19 18:59:00,
2013-08-19 15:14:00,75.5,62.0,29.95,WNW,284,2.0,7.0,63,0.00,,,0.00,weatherlink.com 1.10,2013-08-19 19:14:00,
2013-08-19 15:29:00,75.3,62.0,29.95,NNE,30,2.0,6.0,64,0.00,,,0.00,weatherlink.com 1.10,2013-08-19 19:29:00,
2013-08-19 15:44:00,75.5,62.0,29.95,SW,219,3.0,6.0,63,0.00,,,0.00,weatherlink.com 1.10,2013-08-19 19:44:00,
2013-08-19 15:59:00,75.6,61.0,29.94,NW,325,1.0,8.0,61,0.00,,,0.00,weatherlink.com 1.10,2013-08-19 19:59:00,
2013-08-19 16:14:00,75.3,62.0,29.94,WNW,285,3.0,8.0,63,0.00,,,0.00,weatherlink.com 1.10,2013-08-19 20:14:00,
2013-08-19 16:29:00,75.8,61.0,29.93,WNW,294,4.0,8.0,60,0.00,,,0.00,weatherlink.com 1.10,2013-08-19 20:29:00,
2013-08-19 16:44:00,74.8,63.0,29.93,WNW,294,1.0,9.0,66,0.00,,,0.00,weatherlink.com 1.10,2013-08-19 20:44:00,
2013-08-19 16:59:00,74.7,63.0,29.93,SE,131,3.0,5.0,67,0.00,,,0.00,weatherlink.com 1.10,2013-08-19 20:59:00,
2013-08-19 17:14:00,75.0,63.0,29.94,WSW,243,3.0,7.0,66,0.00,,,0.00,weatherlink.com 1.10,2013-08-19 21:14:00,
2013-08-19 17:29:00,74.4,63.0,29.94,NNW,343,1.0,4.0,67,0.00,,,0.00,weatherlink.com 1.10,2013-08-19 21:29:00,
2013-08-19 17:44:00,73.7,63.0,29.94,SW,231,0.0,3.0,70,0.00,,,0.00,weatherlink.com 1.10,2013-08-19 21:44:00,
2013-08-19 17:59:00,72.8,63.0,29.94,SW,224,0.0,4.0,71,0.00,,,0.00,weatherlink.com 1.10,2013-08-19 21:59:00,
2013-08-19 18:14:00,72.4,64.0,29.94,West,277,0.0,4.0,74,0.00,,,0.00,weatherlink.com 1.10,2013-08-19 22:14:00,
2013-08-19 18:29:00,71.8,62.0,29.95,WNW,287,1.0,4.0,72,0.00,,,0.00,weatherlink.com 1.10,2013-08-19 22:29:00,
2013-08-19 18:44:00,71.4,62.0,29.95,WSW,246,0.0,3.0,73,0.00,,,0.00,weatherlink.com 1.10,2013-08-19 22:44:00,
2013-08-19 18:59:00,71.3,61.0,29.95,WNW,293,2.0,5.0,71,0.00,,,0.00,weatherlink.com 1.10,2013-08-19 22:59:00,
2013-08-19 19:14:00,71.2,61.0,29.96,WSW,249,0.0,7.0,70,0.00,,,0.00,weatherlink.com 1.10,2013-08-19 23:14:00,
2013-08-19 19:29:00,70.7,61.0,29.96,West,269,2.0,5.0,71,0.00,,,0.00,weatherlink.com 1.10,2013-08-19 23:29:00,
2013-08-19 19:44:00,70.2,61.0,29.96,West,281,2.0,6.0,72,0.00,,,0.00,weatherlink.com 1.10,2013-08-19 23:44:00,
2013-08-19 19:59:00,69.4,61.0,29.95,West,270,0.0,4.0,75,0.00,,,0.00,weatherlink.com 1.10,2013-08-19 23:59:00,
2013-08-19 20:14:00,69.0,61.0,29.96,West,265,1.0,6.0,76,0.00,,,0.00,weatherlink.com 1.10,2013-08-20 00:14:00,
2013-08-19 20:29:00,68.4,61.0,29.96,SSW,198,0.0,2.0,77,0.00,,,0.00,weatherlink.com 1.10,2013-08-20 00:29:00,
2013-08-19 20:44:00,68.3,61.0,29.96,West,264,0.0,4.0,78,0.00,,,0.00,weatherlink.com 1.10,2013-08-20 00:44:00,
2013-08-19 20:59:00,68.4,61.0,29.96,WNW,284,0.0,3.0,78,0.00,,,0.00,weatherlink.com 1.10,2013-08-20 00:59:00,
2013-08-19 21:14:00,68.4,61.0,29.97,West,276,0.0,4.0,78,0.00,,,0.00,weatherlink.com 1.10,2013-08-20 01:14:00,
2013-08-19 21:29:00,68.4,61.0,29.97,WNW,288,0.0,4.0,78,0.00,,,0.00,weatherlink.com 1.10,2013-08-20 01:29:00,
2013-08-19 21:44:00,67.8,61.0,29.97,WNW,286,0.0,4.0,79,0.00,,,0.00,weatherlink.com 1.10,2013-08-20 01:44:00,
2013-08-19 21:59:00,67.9,61.0,29.97,WNW,286,1.0,4.0,78,0.00,,,0.00,weatherlink.com 1.10,2013-08-20 01:59:00,
2013-08-19 22:14:00,67.7,61.0,29.97,WNW,291,0.0,2.0,78,0.00,,,0.00,weatherlink.com 1.10,2013-08-20 02:14:00,
2013-08-19 22:29:00,67.6,61.0,29.97,West,281,0.0,6.0,79,0.00,,,0.00,weatherlink.com 1.10,2013-08-20 02:29:00,
2013-08-19 22:44:00,67.6,61.0,29.97,West,277,1.0,4.0,78,0.00,,,0.00,weatherlink.com 1.10,2013-08-20 02:44:00,
2013-08-19 22:59:00,67.7,61.0,29.97,SW,222,1.0,5.0,78,0.00,,,0.00,weatherlink.com 1.10,2013-08-20 02:59:00,
2013-08-19 23:14:00,67.7,61.0,29.97,West,267,0.0,4.0,78,0.00,,,0.00,weatherlink.com 1.10,2013-08-20 03:14:00,
2013-08-19 23:29:00,67.4,60.0,29.97,WSW,256,0.0,3.0,78,0.00,,,0.00,weatherlink.com 1.10,2013-08-20 03:29:00,
2013-08-19 23:44:00,66.8,60.0,29.97,SSW,193,0.0,2.0,80,0.00,,,0.00,weatherlink.com 1.10,2013-08-20 03:44:00,
2013-08-19 23:59:00,65.9,60.0,29.97,East,96,1.0,3.0,80,0.00,,,0.00,weatherlink.com 1.10,2013-08-20 03:59:00,